Notices

What's New in latest Release from April 7th, 2021:

- Updated Glossary, including Speed of Maximum Gust, and Total Hourly Precipitation

- Updated national and regional climate services offices contacts and prices information

- Addition of station inventory lists for 1981-2010, 1971-2000, and 1961-1990 Normals.

If you haven't already, please take our survey and provide feedback about our website: https://eccc.sondage-survey.ca/f/LanguageSelection.aspx?s=442ca660-fcf1-47c0-95a9-59707d6fd709

Hourly Data Report for May 19, 2020

MIRAMICHI RCS
NEW BRUNSWICK
Current Station Operator: ECCC - MSC

47°00'34.000" N
65°27'54.000" W
33.00 m
8100989
71744
ACQ

Download Data

Hourly Data (May 2020)
Hourly Data Report for May 19, 2020
TIME
LST
Temp Definition
°C
Dew Point Definition
°C
Rel Hum Definition
%
Precip. Amount Definition
mm

Wind Dir Definition
10's deg

Wind Spd Definition
km/h
Visibility Definition
km
Stn Press Definition
kPa
Hmdx Definition


Wind Chill Definition


Weather Definition


00:00 2.2 0.5 88 LegendMM 30 4   102.44     LegendNANA
01:00 1.7 0.0 89 LegendMM 32 3   102.45     LegendNANA
02:00 1.1 0.2 93 LegendMM 31 2   102.48     LegendNANA
03:00 1.7 0.7 93 LegendMM 28 5   102.48     LegendNANA
04:00 1.1 -0.6 89 LegendMM 28 5   102.52     LegendNANA
05:00 0.3 -2.3 83 LegendMM 20 4   102.55     LegendNANA
06:00 3.1 1.5 89 LegendMM 26 4   102.59     LegendNANA
07:00 7.0 0.0 61 LegendMM 2 9   102.62     LegendNANA
08:00 8.4 -0.7 53 LegendMM 4 16   102.64     LegendNANA
09:00 9.7 -1.0 47 LegendMM 2 12   102.65     LegendNANA
10:00 11.0 -2.6 38 LegendMM 2 18   102.65     LegendNANA
11:00 11.4 0.5 47 LegendMM 8 23   102.64     LegendNANA
12:00 10.7 -1.2 44 LegendMM 8 17   102.64     LegendNANA
13:00 12.1 -0.7 41 LegendMM 8 11   102.60     LegendNANA
14:00 12.9 -0.5 39 LegendMM 12 9   102.56     LegendNANA
15:00 13.8 -2.5 32 LegendMM 11 9   102.50     LegendNANA
16:00 14.7 1.0 39 LegendMM 13 6   102.44     LegendNANA
17:00 13.3 2.4 48 LegendMM 5 15   102.44     LegendNANA
18:00 12.2 3.2 54 LegendMM 5 16   102.43     LegendNANA
19:00 10.8 0.7 49 LegendMM 8 19   102.47     LegendNANA
20:00 7.6 -0.8 56 LegendMM 10 16   102.57     LegendNANA
21:00 5.3 -1.4 62 LegendMM 8 7   102.65     LegendNANA
22:00 4.4 -1.0 68 LegendMM 1 4   102.69     LegendNANA
23:00 2.7 0.0 82 LegendMM 25 3   102.69     LegendNANA

Notes on Data Quality.

Legend

  • E = Estimated
  • M = Missing
  • NA = Not Available*
  • [empty] = Indicates an unobserved value
Date modified: